TimeCDT,TemperatureF,Dew PointF,Humidity,Sea Level PressureIn,VisibilityMPH,Wind Direction,Wind SpeedMPH,Gust SpeedMPH,PrecipitationIn,Events,Conditions,WindDirDegrees,DateUTC
12:53 AM,43.0,25.0,49,29.91,10.0,SSW,16.1,-,N/A,,Clear,200,2012-10-08 05:53:00
1:53 AM,42.1,25.0,51,29.91,10.0,SW,12.7,-,N/A,,Clear,220,2012-10-08 06:53:00
2:53 AM,42.1,27.0,55,29.90,10.0,SW,12.7,-,N/A,,Clear,220,2012-10-08 07:53:00
3:53 AM,42.1,28.0,58,29.88,10.0,SW,12.7,-,N/A,,Clear,220,2012-10-08 08:53:00
4:53 AM,43.0,30.0,60,29.87,10.0,SW,13.8,20.7,N/A,,Clear,220,2012-10-08 09:53:00
5:53 AM,44.1,30.0,58,29.86,10.0,SW,12.7,-,N/A,,Mostly Cloudy,220,2012-10-08 10:53:00
6:53 AM,44.1,30.9,60,29.86,10.0,SW,12.7,-,N/A,,Overcast,220,2012-10-08 11:53:00
7:53 AM,44.1,30.9,60,29.85,10.0,SSW,17.3,-,N/A,,Overcast,210,2012-10-08 12:53:00
8:53 AM,45.0,30.9,58,29.84,10.0,SSW,17.3,-,N/A,,Clear,210,2012-10-08 13:53:00
9:53 AM,48.9,32.0,52,29.83,10.0,SSW,16.1,-,N/A,,Clear,200,2012-10-08 14:53:00
10:53 AM,55.0,30.9,40,29.79,10.0,SSW,18.4,24.2,N/A,,Clear,200,2012-10-08 15:53:00
11:53 AM,61.0,30.0,31,29.77,10.0,SSW,20.7,26.5,N/A,,Clear,210,2012-10-08 16:53:00
12:53 PM,64.0,28.0,26,29.74,10.0,SSW,23.0,32.2,N/A,,Partly Cloudy,210,2012-10-08 17:53:00
1:53 PM,66.9,27.0,22,29.71,10.0,SSW,26.5,32.2,N/A,,Partly Cloudy,210,2012-10-08 18:53:00
2:53 PM,71.1,26.1,19,29.69,10.0,SW,28.8,36.8,N/A,,Clear,230,2012-10-08 19:53:00
3:53 PM,73.0,24.1,16,29.68,10.0,SW,31.1,35.7,N/A,,Clear,230,2012-10-08 20:53:00
4:53 PM,73.0,24.1,16,29.68,10.0,WSW,25.3,36.8,N/A,,Clear,250,2012-10-08 21:53:00
5:53 PM,69.1,32.0,25,29.70,9.0,West,18.4,-,N/A,,Partly Cloudy,270,2012-10-08 22:53:00
6:53 PM,66.9,36.0,32,29.71,8.0,WNW,13.8,-,N/A,,Overcast,290,2012-10-08 23:53:00
7:53 PM,64.0,39.0,40,29.75,9.0,WNW,10.4,-,N/A,,Overcast,300,2012-10-09 00:53:00
9:53 PM,53.1,46.9,80,29.83,10.0,NW,4.6,-,0.01,Rain,Light Rain,320,2012-10-09 02:53:00
10:53 PM,52.0,48.0,86,29.83,10.0,SSW,5.8,-,0.01,Rain,Light Rain,200,2012-10-09 03:53:00
11:53 PM,50.0,46.9,89,29.80,10.0,South,5.8,-,0.01,,Mostly Cloudy,170,2012-10-09 04:53:00